BAW590 EGLL-LIMC

Flight info

Callsign BAW590
Flight time N/A
Altitude 35000
Route MODMI M185 MID L612 BOGNA UL612 VEULE DCT TEPRI UN491 POGZI DCT GELTA DCT LUVAL DCT SHARA DCT DEVDI DCT BASGO/N0470F290 Z424 AKASU/N0401F190 Z424 RIXUV
Aircraft A320/M-SDE3FGHIRWY/LB1

Departure

Time 2026-05-05 19:02
Airport London Heathrow Airport (EGLL)

Arrival

Time N/A
Airport Milan Malpensa International Airport (LIMC)
Time Latitude Longitude Altitude Speed Heading
2026-05-05 18:28 51.47187 -0.48599 86 ft 0 kts 269°
2026-05-05 18:49 51.47187 -0.48589 86 ft 4 kts 269°
2026-05-05 18:49 51.47189 -0.48546 86 ft 4 kts 260°
2026-05-05 18:49 51.47196 -0.48505 89 ft 4 kts 243°
2026-05-05 18:50 51.47208 -0.48479 90 ft 4 kts 206°
2026-05-05 18:50 51.47220 -0.48474 90 ft 1 kts 179°
2026-05-05 18:50 51.47221 -0.48474 90 ft 0 kts 179°
2026-05-05 18:54 51.47218 -0.48474 86 ft 3 kts 181°
2026-05-05 18:55 51.47178 -0.48475 86 ft 8 kts 179°
2026-05-05 18:55 51.47126 -0.48474 86 ft 7 kts 183°
2026-05-05 18:55 51.47070 -0.48473 86 ft 9 kts 179°
2026-05-05 18:55 51.47015 -0.48472 87 ft 5 kts 177°
2026-05-05 18:56 51.46977 -0.48473 88 ft 6 kts 180°
2026-05-05 18:56 51.46936 -0.48471 88 ft 4 kts 180°
2026-05-05 18:56 51.46904 -0.48469 86 ft 5 kts 178°
2026-05-05 18:56 51.46865 -0.48469 86 ft 6 kts 180°
2026-05-05 18:57 51.46851 -0.48469 86 ft 0 kts 181°
2026-05-05 18:59 51.46838 -0.48470 86 ft 5 kts 181°
2026-05-05 18:59 51.46786 -0.48468 86 ft 10 kts 176°
2026-05-05 18:59 51.46718 -0.48470 86 ft 10 kts 178°
2026-05-05 19:00 51.46632 -0.48469 88 ft 15 kts 181°
2026-05-05 19:00 51.46514 -0.48465 89 ft 13 kts 176°
2026-05-05 19:00 51.46470 -0.48421 86 ft 3 kts 97°
2026-05-05 19:00 51.46470 -0.48361 88 ft 8 kts 90°
2026-05-05 19:01 51.46472 -0.48016 88 ft 64 kts 89°
2026-05-05 19:01 51.46480 -0.46991 88 ft 118 kts 88°
2026-05-05 19:01 51.46491 -0.45436 87 ft 159 kts 90°
2026-05-05 19:01 51.46427 -0.43634 445 ft 158 kts 101°
2026-05-05 19:02 51.46404 -0.41892 852 ft 155 kts 110°